| time (UTC) | temp C | wind direction | speed KPH | gust KPH | rain 1hr cm | rain 24hr cm | rain mn cm | humidity % | barometer mb |
| 20260507084020 | 10 | 111 | 3.2 | 3.2 | 0.00 | 0.00 | 0.00 | 92 | 1020.4 |
| 20260507083515 | 10 | 133 | 1.6 | 1.6 | 0.00 | 0.00 | 0.00 | 92 | 1020.7 |
| 20260507083013 | 10 | 132 | 0.0 | 0.0 | 0.00 | 0.00 | 0.00 | 92 | 1020.4 |
| 20260507082508 | 11 | 140 | 0.0 | 0.0 | 0.00 | 0.00 | 0.00 | 92 | 1020.4 |
| 20260507082005 | 11 | 128 | 0.0 | 1.6 | 0.00 | 0.00 | 0.00 | 92 | 1020.4 |
| 20260507081501 | 11 | 126 | 0.0 | 0.0 | 0.00 | 0.00 | 0.00 | 92 | 1020.4 |
| 20260507080958 | 11 | 119 | 1.6 | 1.6 | 0.00 | 0.00 | 0.00 | 92 | 1020.4 |
| 20260507080454 | 11 | 128 | 0.0 | 0.0 | 0.00 | 0.00 | 0.00 | 92 | 1020.0 |
| 20260507075950 | 11 | 119 | 1.6 | 1.6 | 0.00 | 0.00 | 0.00 | 91 | 1020.0 |
| 20260507075446 | 11 | 135 | 0.0 | 0.0 | 0.00 | 0.00 | 0.00 | 91 | 1020.4 |
| 20260507074943 | 11 | 122 | 1.6 | 1.6 | 0.00 | 0.00 | 0.00 | 91 | 1020.0 |
| 20260507074440 | 11 | 117 | 1.6 | 1.6 | 0.00 | 0.00 | 0.00 | 91 | 1019.7 |
| 20260507073938 | 11 | 118 | 1.6 | 1.6 | 0.00 | 0.00 | 0.00 | 91 | 1020.4 |
| 20260507073434 | 11 | 125 | 0.0 | 1.6 | 0.00 | 0.00 | 0.00 | 91 | 1020.0 |
| 20260507072931 | 11 | 125 | 0.0 | 1.6 | 0.00 | 0.00 | 0.00 | 91 | 1019.7 |
| 20260507072428 | 11 | 128 | 0.0 | 0.0 | 0.00 | 0.00 | 0.00 | 91 | 1019.7 |
| 20260507071926 | 11 | 126 | 0.0 | 0.0 | 0.00 | 0.00 | 0.00 | 90 | 1020.0 |
| 20260507071422 | 11 | 128 | 0.0 | 0.0 | 0.00 | 0.00 | 0.00 | 90 | 1019.7 |
| 20260507070919 | 11 | 141 | 1.6 | 3.2 | 0.00 | 0.00 | 0.00 | 90 | 1019.7 |
| 20260507070417 | 11 | 126 | 3.2 | 4.8 | 0.00 | 0.00 | 0.00 | 90 | 1019.7 |
| 20260507065913 | 12 | 128 | 0.0 | 0.0 | 0.00 | 0.00 | 0.00 | 90 | 1019.7 |
| 20260507065410 | 12 | 130 | 0.0 | 0.0 | 0.00 | 0.00 | 0.00 | 90 | 1019.7 |
| 20260507064907 | 12 | 125 | 0.0 | 1.6 | 0.00 | 0.00 | 0.00 | 90 | 1019.7 |
| 20260507064405 | 12 | 128 | 0.0 | 0.0 | 0.00 | 0.00 | 0.00 | 90 | 1019.7 |
| 20260507063903 | 12 | 127 | 0.0 | 0.0 | 0.00 | 0.00 | 0.00 | 90 | 1019.3 |
| 20260507063400 | 12 | 127 | 0.0 | 0.0 | 0.00 | 0.00 | 0.00 | 90 | 1019.3 |
| 20260507062856 | 12 | 126 | 0.0 | 0.0 | 0.00 | 0.00 | 0.00 | 90 | 1019.7 |
| 20260507062353 | 12 | 120 | 0.0 | 1.6 | 0.00 | 0.00 | 0.00 | 90 | 1019.7 |
| 20260507061851 | 12 | 128 | 0.0 | 0.0 | 0.00 | 0.00 | 0.00 | 90 | 1019.3 |
| 20260507061349 | 12 | 130 | 0.0 | 0.0 | 0.00 | 0.00 | 0.00 | 89 | 1019.7 |
| 20260507060847 | 12 | 130 | 0.0 | 0.0 | 0.00 | 0.00 | 0.00 | 89 | 1019.3 |
| 20260507060343 | 12 | 130 | 0.0 | 0.0 | 0.00 | 0.00 | 0.00 | 89 | 1019.0 |
| 20260507055840 | 12 | 131 | 0.0 | 0.0 | 0.00 | 0.00 | 0.00 | 90 | 1019.0 |
| 20260507055335 | 12 | 131 | 0.0 | 0.0 | 0.00 | 0.00 | 0.00 | 89 | 1019.0 |
| 20260507054832 | 12 | 133 | 0.0 | 0.0 | 0.00 | 0.00 | 0.00 | 89 | 1019.0 |
| 20260507054328 | 12 | 134 | 0.0 | 0.0 | 0.00 | 0.00 | 0.00 | 89 | 1018.7 |
| 20260507053826 | 12 | 131 | 0.0 | 0.0 | 0.00 | 0.00 | 0.00 | 89 | 1018.7 |
| 20260507053323 | 12 | 131 | 0.0 | 0.0 | 0.00 | 0.00 | 0.00 | 89 | 1018.7 |
| 20260507052822 | 12 | 136 | 0.0 | 0.0 | 0.00 | 0.00 | 0.00 | 89 | 1018.7 |
| 20260507052318 | 12 | 134 | 0.0 | 0.0 | 0.00 | 0.00 | 0.00 | 89 | 1018.7 |
| 20260507051816 | 12 | 128 | 0.0 | 0.0 | 0.00 | 0.00 | 0.00 | 88 | 1019.0 |
| 20260507051314 | 12 | 128 | 0.0 | 0.0 | 0.00 | 0.00 | 0.00 | 88 | 1018.7 |
| 20260507050810 | 12 | 128 | 0.0 | 0.0 | 0.00 | 0.00 | 0.00 | 88 | 1018.7 |
| 20260507050306 | 12 | 128 | 0.0 | 0.0 | 0.00 | 0.00 | 0.00 | 88 | 1018.7 |
| 20260507045804 | 12 | 129 | 0.0 | 0.0 | 0.00 | 0.30 | 0.30 | 88 | 1018.7 |
| 20260507045300 | 12 | 127 | 0.0 | 1.6 | 0.00 | 0.30 | 0.30 | 88 | 1018.3 |
| 20260507044757 | 12 | 135 | 0.0 | 0.0 | 0.00 | 0.30 | 0.30 | 88 | 1018.7 |
| 20260507044253 | 12 | 137 | 0.0 | 0.0 | 0.00 | 0.30 | 0.30 | 88 | 1018.3 |
| 20260507043750 | 12 | 130 | 0.0 | 0.0 | 0.00 | 0.30 | 0.30 | 87 | 1018.3 |
| 20260507043247 | 12 | 130 | 0.0 | 0.0 | 0.00 | 0.30 | 0.30 | 87 | 1018.7 |
| 20260507042743 | 13 | 131 | 0.0 | 0.0 | 0.00 | 0.30 | 0.30 | 87 | 1018.3 |
| 20260507042238 | 13 | 129 | 0.0 | 0.0 | 0.00 | 0.30 | 0.30 | 87 | 1018.7 |
| 20260507041736 | 13 | 137 | 0.0 | 1.6 | 0.00 | 0.30 | 0.30 | 87 | 1018.7 |
| 20260507041232 | 13 | 137 | 0.0 | 0.0 | 0.00 | 0.30 | 0.30 | 87 | 1018.7 |
| 20260507040729 | 13 | 134 | 0.0 | 0.0 | 0.00 | 0.30 | 0.30 | 86 | 1018.7 |
| 20260507040225 | 13 | 134 | 0.0 | 0.0 | 0.00 | 0.30 | 0.30 | 86 | 1018.7 |
| 20260507035721 | 13 | 131 | 0.0 | 0.0 | 0.00 | 0.30 | 0.30 | 86 | 1018.7 |
| 20260507035217 | 13 | 131 | 0.0 | 0.0 | 0.00 | 0.30 | 0.30 | 85 | 1018.7 |
| 20260507034714 | 13 | 133 | 0.0 | 0.0 | 0.00 | 0.30 | 0.30 | 85 | 1018.7 |
| 20260507034212 | 13 | 130 | 0.0 | 0.0 | 0.00 | 0.30 | 0.30 | 86 | 1018.7 |
| 20260507033710 | 13 | 130 | 0.0 | 0.0 | 0.00 | 0.30 | 0.30 | 85 | 1018.7 |
| 20260507033207 | 13 | 130 | 0.0 | 0.0 | 0.00 | 0.30 | 0.30 | 84 | 1018.7 |
| 20260507032704 | 13 | 130 | 0.0 | 0.0 | 0.00 | 0.30 | 0.30 | 84 | 1018.7 |
| 20260507032200 | 13 | 130 | 0.0 | 0.0 | 0.00 | 0.30 | 0.30 | 84 | 1018.3 |
| 20260507031657 | 13 | 130 | 0.0 | 0.0 | 0.00 | 0.30 | 0.30 | 83 | 1018.7 |
| 20260507031153 | 13 | 130 | 0.0 | 0.0 | 0.00 | 0.30 | 0.30 | 83 | 1018.3 |
| 20260507030650 | 13 | 133 | 0.0 | 0.0 | 0.00 | 0.30 | 0.30 | 83 | 1018.3 |
| 20260507030148 | 13 | 132 | 0.0 | 0.0 | 0.00 | 0.30 | 0.30 | 82 | 1018.3 |
| 20260507025645 | 14 | 132 | 0.0 | 0.0 | 0.00 | 0.30 | 0.30 | 82 | 1018.3 |
| 20260507025142 | 14 | 133 | 0.0 | 0.0 | 0.00 | 0.30 | 0.30 | 81 | 1018.0 |
| 20260507024640 | 14 | 131 | 0.0 | 0.0 | 0.00 | 0.30 | 0.30 | 81 | 1018.0 |
| 20260507024137 | 15 | 131 | 0.0 | 0.0 | 0.00 | 0.30 | 0.30 | 80 | 1018.0 |
| 20260507023632 | 15 | 132 | 0.0 | 0.0 | 0.00 | 0.30 | 0.30 | 79 | 1018.0 |
| 20260507023130 | 15 | 136 | 0.0 | 0.0 | 0.00 | 0.30 | 0.30 | 79 | 1018.3 |
| 20260507022627 | 15 | 131 | 0.0 | 0.0 | 0.00 | 0.30 | 0.30 | 79 | 1018.0 |
| 20260507022122 | 15 | 130 | 0.0 | 0.0 | 0.00 | 0.30 | 0.30 | 78 | 1018.0 |
| 20260507021619 | 15 | 129 | 0.0 | 0.0 | 0.00 | 0.30 | 0.30 | 77 | 1018.0 |
| 20260507021115 | 15 | 127 | 0.0 | 0.0 | 0.00 | 0.30 | 0.30 | 76 | 1017.6 |
| 20260507020613 | 15 | 72 | 1.6 | 3.2 | 0.00 | 0.30 | 0.30 | 75 | 1017.6 |
| 20260507020109 | 15 | 117 | 1.6 | 1.6 | 0.00 | 0.30 | 0.30 | 75 | 1017.2 |
| 20260507015608 | 15 | 110 | 1.6 | 1.6 | 0.00 | 0.30 | 0.30 | 75 | 1017.2 |
| 20260507015105 | 16 | 109 | 1.6 | 3.2 | 0.00 | 0.30 | 0.30 | 74 | 1017.2 |
| 20260507014601 | 16 | 122 | 1.6 | 3.2 | 0.00 | 0.30 | 0.30 | 75 | 1017.2 |
| 20260507014057 | 16 | 115 | 4.8 | 4.8 | 0.00 | 0.30 | 0.30 | 75 | 1017.2 |
| 20260507013554 | 16 | 121 | 1.6 | 3.2 | 0.00 | 0.30 | 0.30 | 75 | 1017.2 |
| 20260507013051 | 16 | 127 | 1.6 | 3.2 | 0.00 | 0.30 | 0.30 | 75 | 1017.2 |
| 20260507012548 | 16 | 122 | 1.6 | 1.6 | 0.00 | 0.30 | 0.30 | 74 | 1017.2 |
| 20260507012038 | 16 | 125 | 3.2 | 3.2 | 0.00 | 0.30 | 0.30 | 73 | 1016.9 |
| 20260507011536 | 16 | 120 | 1.6 | 1.6 | 0.00 | 0.30 | 0.30 | 73 | 1016.9 |
| 20260507011032 | 16 | 106 | 3.2 | 4.8 | 0.00 | 0.30 | 0.30 | 73 | 1016.9 |
| 20260507010526 | 17 | 119 | 1.6 | 4.8 | 0.00 | 0.30 | 0.30 | 72 | 1016.5 |
| 20260507010023 | 17 | 60 | 3.2 | 3.2 | 0.00 | 0.30 | 0.30 | 71 | 1016.5 |
| 20260507005521 | 17 | 127 | 0.0 | 1.6 | 0.00 | 0.30 | 0.30 | 70 | 1016.5 |
| 20260507005017 | 18 | 125 | 0.0 | 0.0 | 0.00 | 0.30 | 0.30 | 69 | 1016.2 |
| 20260507004514 | 17 | 106 | 0.0 | 0.0 | 0.00 | 0.30 | 0.30 | 70 | 1016.5 |
| 20260507004012 | 17 | 155 | 3.2 | 3.2 | 0.00 | 0.30 | 0.30 | 70 | 1016.2 |
| 20260507003507 | 17 | 108 | 3.2 | 3.2 | 0.00 | 0.30 | 0.30 | 70 | 1016.2 |
| 20260507003002 | 17 | 44 | 6.4 | 9.7 | 0.00 | 0.30 | 0.30 | 69 | 1016.2 |
| 20260507002459 | 18 | 130 | 1.6 | 3.2 | 0.00 | 0.30 | 0.30 | 68 | 1015.9 |
| 20260507001955 | 18 | 128 | 1.6 | 1.6 | 0.00 | 0.30 | 0.30 | 68 | 1015.9 |
| 20260507001452 | 18 | 16 | 4.8 | 4.8 | 0.00 | 0.30 | 0.30 | 67 | 1015.5 |
| 20260507000949 | 19 | 343 | 6.4 | 12.9 | 0.00 | 0.30 | 0.30 | 67 | 1015.9 |
| 20260507000445 | 19 | 44 | 4.8 | 8.0 | 0.00 | 0.30 | 0.30 | 66 | 1015.9 |
| 20260506235940 | 19 | 121 | 1.6 | 1.6 | 0.00 | 0.30 | 0.30 | 65 | 1015.9 |
| 20260506235438 | 20 | 353 | 6.4 | 8.0 | 0.00 | 0.30 | 0.30 | 65 | 1015.5 |
| 20260506234933 | 20 | 327 | 8.0 | 11.3 | 0.00 | 0.30 | 0.30 | 65 | 1015.5 |
| 20260506234432 | 20 | 122 | 11.3 | 16.1 | 0.00 | 0.30 | 0.30 | 65 | 1015.2 |
| 20260506233929 | 20 | 344 | 9.7 | 12.9 | 0.00 | 0.30 | 0.30 | 64 | 1015.5 |
| 20260506233425 | 21 | 355 | 8.0 | 12.9 | 0.00 | 0.30 | 0.30 | 62 | 1015.5 |
| 20260506232922 | 22 | 135 | 1.6 | 3.2 | 0.00 | 0.30 | 0.30 | 60 | 1015.2 |
| 20260506232418 | 22 | 134 | 0.0 | 0.0 | 0.00 | 0.30 | 0.30 | 61 | 1015.2 |
| 20260506231914 | 22 | 99 | 6.4 | 8.0 | 0.00 | 0.30 | 0.30 | 60 | 1015.2 |
| 20260506231412 | 23 | 138 | 0.0 | 0.0 | 0.00 | 0.30 | 0.30 | 58 | 1015.2 |
| 20260506230909 | 24 | 121 | 4.8 | 4.8 | 0.00 | 0.30 | 0.30 | 58 | 1015.2 |
| 20260506230405 | 24 | 136 | 0.0 | 1.6 | 0.00 | 0.30 | 0.30 | 56 | 1014.8 |
| 20260506225902 | 24 | 137 | 1.6 | 1.6 | 0.00 | 0.30 | 0.30 | 57 | 1014.8 |
| 20260506225359 | 24 | 143 | 0.0 | 1.6 | 0.00 | 0.30 | 0.30 | 56 | 1015.2 |
| 20260506224856 | 24 | 125 | 1.6 | 3.2 | 0.00 | 0.30 | 0.30 | 55 | 1014.8 |
| 20260506224354 | 23 | 140 | 0.0 | 1.6 | 0.00 | 0.30 | 0.30 | 59 | 1015.2 |
| 20260506223849 | 24 | 105 | 0.0 | 1.6 | 0.00 | 0.30 | 0.30 | 55 | 1015.2 |
| 20260506223345 | 23 | 138 | 1.6 | 1.6 | 0.00 | 0.30 | 0.30 | 58 | 1014.8 |
| 20260506222842 | 23 | 120 | 1.6 | 1.6 | 0.00 | 0.30 | 0.30 | 58 | 1014.8 |
| 20260506222338 | 23 | 144 | 0.0 | 0.0 | 0.00 | 0.30 | 0.30 | 59 | 1014.8 |
| 20260506221836 | 23 | 143 | 0.0 | 0.0 | 0.00 | 0.30 | 0.30 | 60 | 1014.8 |
| 20260506221333 | 22 | 141 | 0.0 | 1.6 | 0.00 | 0.30 | 0.30 | 61 | 1014.8 |
| 20260506220831 | 22 | 136 | 0.0 | 0.0 | 0.00 | 0.30 | 0.30 | 61 | 1014.8 |
| 20260506220326 | 22 | 138 | 0.0 | 0.0 | 0.00 | 0.30 | 0.30 | 63 | 1014.8 |
| 20260506215823 | 21 | 134 | 1.6 | 1.6 | 0.00 | 0.30 | 0.30 | 61 | 1014.8 |
| 20260506215318 | 22 | 106 | 1.6 | 3.2 | 0.00 | 0.30 | 0.30 | 58 | 1015.2 |
| 20260506214815 | 23 | 139 | 0.0 | 0.0 | 0.00 | 0.30 | 0.30 | 59 | 1014.8 |
| 20260506214311 | 22 | 135 | 0.0 | 0.0 | 0.00 | 0.30 | 0.30 | 61 | 1014.8 |
| 20260506213810 | 22 | 139 | 0.0 | 0.0 | 0.00 | 0.30 | 0.30 | 59 | 1014.8 |
| 20260506213307 | 22 | 134 | 0.0 | 0.0 | 0.00 | 0.30 | 0.30 | 62 | 1015.2 |
| 20260506212804 | 22 | 132 | 0.0 | 1.6 | 0.00 | 0.30 | 0.30 | 62 | 1015.2 |
| 20260506212300 | 22 | 136 | 0.0 | 0.0 | 0.00 | 0.30 | 0.30 | 63 | 1015.2 |
| 20260506211754 | 22 | 139 | 0.0 | 0.0 | 0.00 | 0.30 | 0.30 | 60 | 1015.2 |
| 20260506211251 | 22 | 123 | 6.4 | 8.0 | 0.00 | 0.30 | 0.30 | 63 | 1015.2 |
| 20260506210748 | 23 | 111 | 1.6 | 1.6 | 0.00 | 0.30 | 0.30 | 58 | 1015.2 |
| 20260506210245 | 22 | 136 | 3.2 | 3.2 | 0.00 | 0.30 | 0.30 | 60 | 1015.2 |
| 20260506205742 | 21 | 136 | 0.0 | 1.6 | 0.00 | 0.30 | 0.30 | 64 | 1015.2 |
| 20260506205238 | 21 | 131 | 3.2 | 3.2 | 0.00 | 0.30 | 0.30 | 63 | 1015.2 |
| 20260506204735 | 21 | 131 | 3.2 | 3.2 | 0.00 | 0.30 | 0.30 | 63 | 1015.5 |
| 20260506204232 | 21 | 123 | 1.6 | 1.6 | 0.00 | 0.30 | 0.30 | 62 | 1015.2 |
| 20260506203730 | 20 | 133 | 0.0 | 0.0 | 0.00 | 0.30 | 0.30 | 65 | 1015.2 |
| 20260506203227 | 20 | 124 | 0.0 | 1.6 | 0.00 | 0.30 | 0.30 | 66 | 1015.5 |
| 20260506202725 | 20 | 132 | 1.6 | 1.6 | 0.00 | 0.30 | 0.30 | 64 | 1015.9 |
| 20260506202221 | 21 | 126 | 1.6 | 1.6 | 0.00 | 0.30 | 0.30 | 63 | 1015.9 |
| 20260506201718 | 20 | 129 | 3.2 | 3.2 | 0.00 | 0.30 | 0.30 | 63 | 1015.5 |
| 20260506201215 | 20 | 44 | 3.2 | 3.2 | 0.00 | 0.30 | 0.30 | 63 | 1015.9 |
| 20260506200712 | 20 | 132 | 3.2 | 4.8 | 0.00 | 0.30 | 0.30 | 63 | 1015.9 |
| 20260506200208 | 20 | 126 | 1.6 | 3.2 | 0.00 | 0.30 | 0.30 | 64 | 1015.9 |
| 20260506195705 | 19 | 134 | 0.0 | 0.0 | 0.00 | 0.30 | 0.30 | 65 | 1015.9 |
| 20260506195201 | 20 | 132 | 0.0 | 1.6 | 0.00 | 0.30 | 0.30 | 63 | 1015.9 |
| 20260506194659 | 20 | 134 | 0.0 | 0.0 | 0.00 | 0.30 | 0.30 | 64 | 1015.9 |
| 20260506194155 | 19 | 112 | 0.0 | 1.6 | 0.00 | 0.30 | 0.30 | 66 | 1016.2 |
| 20260506193653 | 20 | 133 | 0.0 | 0.0 | 0.00 | 0.30 | 0.30 | 63 | 1016.2 |
| 20260506193149 | 20 | 134 | 0.0 | 1.6 | 0.00 | 0.30 | 0.30 | 65 | 1016.2 |
| 20260506192646 | 20 | 110 | 3.2 | 3.2 | 0.00 | 0.30 | 0.30 | 65 | 1016.2 |
| 20260506192142 | 18 | 132 | 0.0 | 0.0 | 0.00 | 0.30 | 0.30 | 67 | 1016.5 |
| 20260506191639 | 18 | 27 | 4.8 | 8.0 | 0.00 | 0.30 | 0.30 | 66 | 1016.5 |
| 20260506191135 | 18 | 254 | 4.8 | 8.0 | 0.00 | 0.30 | 0.30 | 64 | 1016.5 |
| 20260506190633 | 19 | 133 | 0.0 | 1.6 | 0.00 | 0.30 | 0.30 | 64 | 1016.5 |
| 20260506190129 | 19 | 140 | 1.6 | 1.6 | 0.00 | 0.30 | 0.30 | 67 | 1016.9 |
| 20260506185627 | 18 | 113 | 1.6 | 1.6 | 0.00 | 0.30 | 0.30 | 69 | 1016.9 |
| 20260506185123 | 17 | 107 | 3.2 | 3.2 | 0.00 | 0.30 | 0.30 | 68 | 1016.5 |
| 20260506184620 | 18 | 129 | 1.6 | 3.2 | 0.00 | 0.30 | 0.30 | 66 | 1016.9 |
| 20260506184117 | 18 | 69 | 6.4 | 8.0 | 0.00 | 0.30 | 0.30 | 67 | 1016.9 |
| 20260506183614 | 17 | 131 | 3.2 | 3.2 | 0.00 | 0.30 | 0.30 | 67 | 1016.9 |
| 20260506183110 | 17 | 50 | 3.2 | 8.0 | 0.00 | 0.30 | 0.30 | 68 | 1016.9 |
| 20260506182608 | 18 | 105 | 4.8 | 4.8 | 0.00 | 0.30 | 0.30 | 67 | 1016.5 |
| 20260506182105 | 17 | 136 | 0.0 | 0.0 | 0.00 | 0.30 | 0.30 | 71 | 1016.5 |
| 20260506181602 | 17 | 14 | 4.8 | 8.0 | 0.00 | 0.30 | 0.30 | 69 | 1016.5 |
| 20260506181059 | 17 | 354 | 4.8 | 4.8 | 0.00 | 0.30 | 0.30 | 70 | 1016.9 |
| 20260506180556 | 17 | 92 | 3.2 | 3.2 | 0.00 | 0.30 | 0.30 | 70 | 1016.9 |
| 20260506180053 | 17 | 337 | 3.2 | 11.3 | 0.00 | 0.30 | 0.30 | 71 | 1017.2 |
| 20260506175549 | 15 | 120 | 6.4 | 8.0 | 0.00 | 0.30 | 0.30 | 75 | 1016.9 |
| 20260506175045 | 16 | 107 | 1.6 | 1.6 | 0.00 | 0.30 | 0.30 | 73 | 1016.9 |
| 20260506174544 | 16 | 54 | 4.8 | 4.8 | 0.00 | 0.30 | 0.30 | 73 | 1016.9 |
| 20260506174039 | 15 | 115 | 4.8 | 8.0 | 0.00 | 0.30 | 0.30 | 74 | 1017.2 |
| 20260506173537 | 15 | 123 | 3.2 | 3.2 | 0.00 | 0.30 | 0.30 | 75 | 1017.2 |
| 20260506173034 | 15 | 108 | 3.2 | 4.8 | 0.00 | 0.30 | 0.30 | 76 | 1017.2 |
| 20260506172531 | 15 | 136 | 0.0 | 1.6 | 0.00 | 0.30 | 0.30 | 79 | 1017.2 |
| 20260506172022 | 14 | 138 | 0.0 | 0.0 | 0.00 | 0.30 | 0.30 | 79 | 1017.2 |
| 20260506171519 | 14 | 50 | 8.0 | 11.3 | 0.00 | 0.30 | 0.30 | 77 | 1017.2 |
| 20260506171017 | 15 | 133 | 0.0 | 0.0 | 0.00 | 0.30 | 0.30 | 81 | 1017.6 |
| 20260506170514 | 15 | 131 | 1.6 | 1.6 | 0.00 | 0.30 | 0.30 | 83 | 1017.2 |
| 20260506170012 | 14 | 130 | 0.0 | 0.0 | 0.00 | 0.30 | 0.30 | 83 | 1017.2 |
| 20260506165510 | 13 | 111 | 0.0 | 3.2 | 0.00 | 0.30 | 0.30 | 85 | 1017.2 |
| 20260506165006 | 13 | 162 | 1.6 | 3.2 | 0.00 | 0.30 | 0.30 | 86 | 1017.2 |
| 20260506164503 | 13 | 132 | 3.2 | 4.8 | 0.00 | 0.30 | 0.30 | 87 | 1016.9 |
| 20260506164000 | 13 | 123 | 8.0 | 11.3 | 0.00 | 0.30 | 0.30 | 88 | 1016.9 |
| 20260506163455 | 12 | 129 | 1.6 | 1.6 | 0.00 | 0.30 | 0.30 | 91 | 1016.9 |
| 20260506162950 | 12 | 128 | 0.0 | 1.6 | 0.00 | 0.30 | 0.30 | 93 | 1016.9 |
| 20260506162448 | 12 | 62 | 1.6 | 3.2 | 0.00 | 0.30 | 0.30 | 94 | 1016.9 |
| 20260506161945 | 12 | 126 | 0.0 | 1.6 | 0.00 | 0.30 | 0.30 | 95 | 1017.2 |
| 20260506161443 | 12 | 47 | 4.8 | 8.0 | 0.00 | 0.30 | 0.30 | 95 | 1016.9 |
| 20260506160940 | 11 | 121 | 4.8 | 4.8 | 0.00 | 0.30 | 0.30 | 95 | 1016.5 |
| 20260506160438 | 11 | 133 | 0.0 | 0.0 | 0.00 | 0.30 | 0.30 | 97 | 1016.5 |
| 20260506155935 | 10 | 14 | 4.8 | 4.8 | 0.00 | 0.30 | 0.30 | 97 | 1016.5 |
| 20260506155432 | 10 | 335 | 3.2 | 8.0 | 0.00 | 0.30 | 0.30 | 97 | 1016.5 |
| 20260506153554 | 10 | 122 | 4.8 | 8.0 | 0.00 | 0.30 | 0.30 | 97 | 1016.9 |
| 20260506153052 | 10 | 107 | 0.0 | 0.0 | 0.00 | 0.30 | 0.30 | 97 | 1016.9 |
| 20260506152548 | 10 | 118 | 1.6 | 1.6 | 0.00 | 0.30 | 0.30 | 97 | 1016.9 |
| 20260506152046 | 10 | 130 | 0.0 | 1.6 | 0.00 | 0.30 | 0.30 | 97 | 1016.5 |
| 20260506151544 | 11 | 233 | 8.0 | 12.9 | 0.00 | 0.30 | 0.30 | 97 | 1016.2 |
| 20260506151041 | 10 | 133 | 0.0 | 0.0 | 0.00 | 0.30 | 0.30 | 98 | 1016.5 |
| 20260506150537 | 10 | 78 | 6.4 | 9.7 | 0.00 | 0.30 | 0.30 | 97 | 1015.9 |
| 20260506150034 | 10 | 327 | 3.2 | 4.8 | 0.00 | 0.30 | 0.30 | 97 | 1016.2 |
| 20260506145531 | 11 | 31 | 4.8 | 4.8 | 0.00 | 0.30 | 0.30 | 97 | 1016.5 |
| 20260506145029 | 11 | 113 | 1.6 | 1.6 | 0.00 | 0.30 | 0.30 | 97 | 1016.5 |
| 20260506144525 | 11 | 119 | 4.8 | 4.8 | 0.00 | 0.30 | 0.30 | 97 | 1016.9 |
| 20260506144023 | 10 | 35 | 1.6 | 3.2 | 0.18 | 0.30 | 0.30 | 96 | 1016.9 |
| 20260506143520 | 10 | 129 | 0.0 | 1.6 | 0.30 | 0.30 | 0.30 | 96 | 1016.9 |
| 20260506143018 | 10 | 131 | 0.0 | 1.6 | 0.48 | 0.28 | 0.28 | 96 | 1016.9 |
| 20260506142516 | 10 | 114 | 3.2 | 3.2 | 0.61 | 0.23 | 0.23 | 95 | 1016.9 |
| 20260506142014 | 10 | 82 | 6.4 | 9.7 | 0.48 | 0.18 | 0.18 | 95 | 1017.2 |
| 20260506141511 | 10 | 114 | 1.6 | 3.2 | 0.30 | 0.13 | 0.13 | 94 | 1018.3 |
| 20260506141010 | 10 | 116 | 3.2 | 3.2 | 0.13 | 0.10 | 0.10 | 94 | 1019.0 |
| 20260506140506 | 10 | 109 | 3.2 | 3.2 | 0.00 | 0.08 | 0.08 | 93 | 1018.3 |
| 20260506140004 | 11 | 129 | 0.0 | 0.0 | 0.18 | 0.08 | 0.08 | 93 | 1018.0 |
| 20260506135500 | 10 | 133 | 1.6 | 1.6 | 0.18 | 0.08 | 0.08 | 93 | 1017.2 |
| 20260506134956 | 10 | 308 | 6.4 | 9.7 | 0.13 | 0.05 | 0.05 | 92 | 1016.9 |
| 20260506134452 | 11 | 116 | 4.8 | 8.0 | 0.13 | 0.05 | 0.05 | 91 | 1016.9 |
| 20260506133949 | 11 | 128 | 3.2 | 4.8 | 0.18 | 0.03 | 0.03 | 90 | 1016.5 |
| 20260506133446 | 11 | 118 | 4.8 | 4.8 | 0.18 | 0.03 | 0.03 | 89 | 1016.9 |
| 20260506132943 | 11 | 109 | 0.0 | 0.0 | 0.00 | 0.00 | 0.00 | 88 | 1016.9 |
| 20260506132440 | 11 | 123 | 1.6 | 1.6 | 0.00 | 0.00 | 0.00 | 87 | 1016.5 |
| 20260506131938 | 11 | 16 | 6.4 | 12.9 | 0.00 | 0.00 | 0.00 | 87 | 1016.2 |
| 20260506131434 | 11 | 128 | 1.6 | 1.6 | 0.00 | 0.00 | 0.00 | 86 | 1016.2 |
| 20260506130931 | 11 | 55 | 4.8 | 4.8 | 0.00 | 0.00 | 0.00 | 84 | 1016.9 |
| 20260506130428 | 11 | 39 | 6.4 | 9.7 | 0.00 | 0.00 | 0.00 | 83 | 1016.9 |
| 20260506125926 | 11 | 106 | 3.2 | 4.8 | 0.00 | 0.00 | 0.00 | 83 | 1017.2 |
| 20260506125424 | 11 | 75 | 4.8 | 4.8 | 0.00 | 0.00 | 0.00 | 82 | 1017.2 |
| 20260506124922 | 11 | 100 | 4.8 | 4.8 | 0.00 | 0.00 | 0.00 | 82 | 1016.5 |
| 20260506124419 | 11 | 357 | 6.4 | 8.0 | 0.00 | 0.00 | 0.00 | 81 | 1015.9 |
| 20260506123917 | 11 | 85 | 1.6 | 1.6 | 0.00 | 0.00 | 0.00 | 82 | 1015.9 |
| 20260506123414 | 11 | 133 | 0.0 | 0.0 | 0.00 | 0.00 | 0.00 | 82 | 1015.5 |
| 20260506122912 | 11 | 140 | 0.0 | 1.6 | 0.00 | 0.00 | 0.00 | 82 | 1015.2 |
| 20260506122408 | 11 | 142 | 0.0 | 0.0 | 0.00 | 0.00 | 0.00 | 82 | 1015.2 |
| 20260506121907 | 11 | 129 | 0.0 | 0.0 | 0.00 | 0.00 | 0.00 | 82 | 1015.2 |
| 20260506121403 | 11 | 122 | 4.8 | 8.0 | 0.00 | 0.00 | 0.00 | 82 | 1014.8 |
| 20260506120900 | 11 | 88 | 4.8 | 8.0 | 0.00 | 0.00 | 0.00 | 82 | 1014.8 |
| 20260506120358 | 11 | 15 | 3.2 | 8.0 | 0.00 | 0.00 | 0.00 | 82 | 1014.8 |
| 20260506115855 | 11 | 5 | 1.6 | 3.2 | 0.00 | 0.00 | 0.00 | 82 | 1014.8 |
| 20260506115353 | 11 | 124 | 4.8 | 8.0 | 0.00 | 0.00 | 0.00 | 81 | 1014.8 |
| 20260506114851 | 11 | 352 | 11.3 | 16.1 | 0.00 | 0.00 | 0.00 | 81 | 1015.2 |
| 20260506114348 | 11 | 104 | 6.4 | 9.7 | 0.00 | 0.00 | 0.00 | 82 | 1014.8 |
| 20260506113847 | 11 | 73 | 6.4 | 9.7 | 0.00 | 0.00 | 0.00 | 81 | 1014.8 |
| 20260506113344 | 11 | 134 | 1.6 | 3.2 | 0.00 | 0.00 | 0.00 | 81 | 1015.2 |
| 20260506112840 | 11 | 121 | 6.4 | 9.7 | 0.00 | 0.00 | 0.00 | 81 | 1014.8 |
| 20260506112338 | 11 | 323 | 4.8 | 8.0 | 0.00 | 0.00 | 0.00 | 81 | 1014.8 |
| 20260506111835 | 12 | 113 | 1.6 | 3.2 | 0.00 | 0.00 | 0.00 | 82 | 1014.8 |
| 20260506111333 | 12 | 343 | 11.3 | 12.9 | 0.00 | 0.00 | 0.00 | 83 | 1014.8 |
| 20260506110830 | 12 | 43 | 8.0 | 9.7 | 0.00 | 0.00 | 0.00 | 83 | 1014.8 |
| 20260506110327 | 12 | 112 | 6.4 | 9.7 | 0.00 | 0.00 | 0.00 | 82 | 1014.8 |
| 20260506105824 | 12 | 114 | 1.6 | 3.2 | 0.00 | 0.00 | 0.00 | 82 | 1014.5 |
| 20260506105320 | 12 | 56 | 6.4 | 9.7 | 0.00 | 0.00 | 0.00 | 81 | 1014.5 |
| 20260506104818 | 12 | 112 | 3.2 | 3.2 | 0.00 | 0.00 | 0.00 | 82 | 1014.1 |
| 20260506104316 | 12 | 327 | 11.3 | 14.5 | 0.00 | 0.00 | 0.00 | 82 | 1014.1 |
| 20260506103813 | 12 | 326 | 8.0 | 11.3 | 0.00 | 0.00 | 0.00 | 81 | 1014.1 |
| 20260506103311 | 12 | 112 | 4.8 | 4.8 | 0.00 | 0.00 | 0.00 | 81 | 1014.1 |
| 20260506102808 | 12 | 122 | 4.8 | 8.0 | 0.00 | 0.00 | 0.00 | 81 | 1013.7 |
| 20260506102306 | 12 | 62 | 3.2 | 3.2 | 0.00 | 0.00 | 0.00 | 81 | 1014.1 |
| 20260506101803 | 12 | 34 | 6.4 | 9.7 | 0.00 | 0.00 | 0.00 | 81 | 1013.7 |
| 20260506101258 | 12 | 86 | 6.4 | 14.5 | 0.00 | 0.00 | 0.00 | 82 | 1013.7 |
| 20260506100757 | 12 | 86 | 4.8 | 8.0 | 0.00 | 0.00 | 0.00 | 82 | 1013.4 |
| 20260506100255 | 12 | 115 | 3.2 | 3.2 | 0.00 | 0.00 | 0.00 | 83 | 1013.4 |
| 20260506095753 | 12 | 75 | 8.0 | 9.7 | 0.00 | 0.00 | 0.00 | 82 | 1013.4 |
| 20260506095250 | 13 | 133 | 0.0 | 0.0 | 0.00 | 0.00 | 0.00 | 83 | 1013.4 |
| 20260506094746 | 13 | 128 | 4.8 | 8.0 | 0.00 | 0.00 | 0.00 | 82 | 1013.1 |
| 20260506094245 | 13 | 114 | 0.0 | 1.6 | 0.00 | 0.00 | 0.00 | 82 | 1013.1 |
| 20260506093743 | 13 | 90 | 0.0 | 1.6 | 0.00 | 0.00 | 0.00 | 82 | 1013.1 |
| 20260506093240 | 13 | 135 | 0.0 | 0.0 | 0.00 | 0.00 | 0.00 | 83 | 1013.1 |
| 20260506092737 | 13 | 330 | 9.7 | 12.9 | 0.00 | 0.00 | 0.00 | 83 | 1012.7 |
| 20260506092235 | 13 | 107 | 6.4 | 9.7 | 0.00 | 0.00 | 0.00 | 84 | 1012.7 |
| 20260506091732 | 13 | 125 | 0.0 | 3.2 | 0.00 | 0.00 | 0.00 | 84 | 1012.7 |
| 20260506091230 | 13 | 128 | 1.6 | 1.6 | 0.00 | 0.00 | 0.00 | 85 | 1012.7 |
| 20260506090727 | 13 | 325 | 6.4 | 9.7 | 0.00 | 0.00 | 0.00 | 84 | 1012.7 |
| 20260506090224 | 13 | 101 | 4.8 | 4.8 | 0.00 | 0.00 | 0.00 | 85 | 1013.1 |
| 20260506085721 | 13 | 89 | 4.8 | 8.0 | 0.00 | 0.00 | 0.00 | 85 | 1013.1 |
| 20260506085217 | 13 | 109 | 4.8 | 4.8 | 0.00 | 0.00 | 0.00 | 85 | 1012.7 |
| 20260506084714 | 13 | 123 | 3.2 | 4.8 | 0.00 | 0.00 | 0.00 | 85 | 1013.1 |